Time,TemperatureF,DewpointF,PressureIn,WindDirection,WindDirectionDegrees,WindSpeedMPH,WindSpeedGustMPH,Humidity,HourlyPrecipIn,Conditions,Clouds,dailyrainin,SoftwareType,DateUTC
2013-05-26 00:12:00,50.2,48.0,29.98,ESE,123,0.0,2.0,93,0.00,,,0.00,weatherlink.com 1.10,2013-05-26 07:12:00,
2013-05-26 00:27:00,49.7,48.0,29.98,ESE,123,1.0,2.0,93,0.00,,,0.00,weatherlink.com 1.10,2013-05-26 07:27:00,
2013-05-26 00:42:00,49.3,47.0,29.98,ESE,123,0.0,2.0,93,0.00,,,0.00,weatherlink.com 1.10,2013-05-26 07:42:00,
2013-05-26 00:57:00,49.2,48.0,29.98,ESE,123,0.0,0.0,94,0.00,,,0.00,weatherlink.com 1.10,2013-05-26 07:57:00,
2013-05-26 01:12:00,48.9,47.0,29.98,ESE,123,0.0,0.0,94,0.00,,,0.00,weatherlink.com 1.10,2013-05-26 08:12:00,
2013-05-26 01:27:00,48.9,48.0,29.98,ESE,123,0.0,0.0,95,0.00,,,0.00,weatherlink.com 1.10,2013-05-26 08:27:00,
2013-05-26 01:42:00,49.0,48.0,29.97,ESE,123,0.0,0.0,95,0.00,,,0.00,weatherlink.com 1.10,2013-05-26 08:42:00,
2013-05-26 01:57:00,49.2,48.0,29.97,ESE,123,0.0,0.0,96,0.00,,,0.00,weatherlink.com 1.10,2013-05-26 08:57:00,
2013-05-26 02:12:00,49.4,48.0,29.97,ESE,123,0.0,0.0,96,0.00,,,0.00,weatherlink.com 1.10,2013-05-26 09:12:00,
2013-05-26 02:27:00,49.5,48.0,29.97,ESE,123,0.0,0.0,96,0.00,,,0.00,weatherlink.com 1.10,2013-05-26 09:27:00,
2013-05-26 02:42:00,49.6,49.0,29.97,ESE,123,0.0,0.0,97,0.00,,,0.00,weatherlink.com 1.10,2013-05-26 09:42:00,
2013-05-26 02:57:00,49.6,49.0,29.96,ESE,123,0.0,0.0,97,0.00,,,0.00,weatherlink.com 1.10,2013-05-26 09:57:00,
2013-05-26 03:12:00,49.7,49.0,29.96,ESE,123,0.0,0.0,97,0.00,,,0.00,weatherlink.com 1.10,2013-05-26 10:12:00,
2013-05-26 03:27:00,49.7,49.0,29.96,ESE,123,0.0,0.0,97,0.00,,,0.00,weatherlink.com 1.10,2013-05-26 10:27:00,
2013-05-26 03:42:00,49.4,48.0,29.96,ESE,123,0.0,0.0,96,0.00,,,0.00,weatherlink.com 1.10,2013-05-26 10:42:00,
2013-05-26 03:57:00,49.2,48.0,29.96,ESE,123,0.0,0.0,96,0.00,,,0.00,weatherlink.com 1.10,2013-05-26 10:57:00,
2013-05-26 04:12:00,49.0,48.0,29.96,ESE,123,0.0,0.0,97,0.00,,,0.00,weatherlink.com 1.10,2013-05-26 11:12:00,
2013-05-26 04:27:00,48.9,48.0,29.96,ESE,123,0.0,0.0,97,0.00,,,0.00,weatherlink.com 1.10,2013-05-26 11:27:00,
2013-05-26 04:42:00,48.8,48.0,29.96,ESE,123,0.0,0.0,97,0.00,,,0.00,weatherlink.com 1.10,2013-05-26 11:42:00,
2013-05-26 04:57:00,48.7,48.0,29.96,ESE,123,0.0,0.0,97,0.00,,,0.00,weatherlink.com 1.10,2013-05-26 11:57:00,
2013-05-26 05:12:00,48.6,48.0,29.96,ESE,123,0.0,0.0,97,0.00,,,0.00,weatherlink.com 1.10,2013-05-26 12:12:00,
2013-05-26 05:27:00,48.5,48.0,29.96,ESE,123,0.0,0.0,97,0.00,,,0.00,weatherlink.com 1.10,2013-05-26 12:27:00,
2013-05-26 05:42:00,48.4,48.0,29.96,ESE,123,0.0,0.0,97,0.00,,,0.00,weatherlink.com 1.10,2013-05-26 12:42:00,
2013-05-26 05:57:00,48.5,48.0,29.96,ESE,123,0.0,0.0,97,0.00,,,0.00,weatherlink.com 1.10,2013-05-26 12:57:00,
2013-05-26 06:12:00,48.3,48.0,29.96,ESE,123,0.0,0.0,97,0.00,,,0.00,weatherlink.com 1.10,2013-05-26 13:12:00,
2013-05-26 06:27:00,48.4,48.0,29.96,ESE,123,0.0,0.0,97,0.00,,,0.00,weatherlink.com 1.10,2013-05-26 13:27:00,
2013-05-26 06:42:00,48.4,48.0,29.96,ESE,123,0.0,0.0,97,0.00,,,0.00,weatherlink.com 1.10,2013-05-26 13:42:00,
2013-05-26 06:57:00,48.4,48.0,29.96,ESE,123,0.0,0.0,97,0.00,,,0.00,weatherlink.com 1.10,2013-05-26 13:57:00,
2013-05-26 07:12:00,48.5,48.0,29.97,ESE,123,0.0,0.0,97,0.00,,,0.00,weatherlink.com 1.10,2013-05-26 14:12:00,
2013-05-26 07:27:00,48.7,48.0,29.97,ESE,123,0.0,0.0,98,0.00,,,0.00,weatherlink.com 1.10,2013-05-26 14:27:00,
2013-05-26 07:42:00,48.9,48.0,29.96,ESE,123,0.0,0.0,98,0.00,,,0.00,weatherlink.com 1.10,2013-05-26 14:42:00,
2013-05-26 07:57:00,49.2,49.0,29.97,ESE,123,0.0,0.0,98,0.00,,,0.00,weatherlink.com 1.10,2013-05-26 14:57:00,
2013-05-26 08:12:00,49.3,49.0,29.97,ESE,123,0.0,0.0,98,0.00,,,0.00,weatherlink.com 1.10,2013-05-26 15:12:00,
2013-05-26 08:27:00,49.2,49.0,29.98,ESE,123,0.0,0.0,98,0.00,,,0.00,weatherlink.com 1.10,2013-05-26 15:27:00,
2013-05-26 08:42:00,49.4,49.0,29.98,ESE,123,0.0,0.0,98,0.00,,,0.00,weatherlink.com 1.10,2013-05-26 15:42:00,
2013-05-26 08:57:00,49.7,49.0,29.98,ESE,123,0.0,0.0,98,0.00,,,0.00,weatherlink.com 1.10,2013-05-26 15:57:00,
2013-05-26 09:12:00,50.2,50.0,29.98,ESE,123,0.0,0.0,98,0.00,,,0.00,weatherlink.com 1.10,2013-05-26 16:12:00,
2013-05-26 09:27:00,50.3,50.0,29.98,ESE,123,0.0,0.0,98,0.00,,,0.00,weatherlink.com 1.10,2013-05-26 16:27:00,
2013-05-26 09:42:00,50.3,50.0,29.98,ESE,123,0.0,0.0,98,0.00,,,0.00,weatherlink.com 1.10,2013-05-26 16:42:00,
2013-05-26 09:57:00,50.1,49.0,29.98,ESE,123,0.0,0.0,97,0.00,,,0.00,weatherlink.com 1.10,2013-05-26 16:57:00,
2013-05-26 10:12:00,50.3,50.0,29.99,ESE,123,0.0,0.0,98,0.00,,,0.00,weatherlink.com 1.10,2013-05-26 17:12:00,
2013-05-26 10:27:00,50.5,50.0,29.99,ESE,123,0.0,0.0,98,0.00,,,0.00,weatherlink.com 1.10,2013-05-26 17:27:00,
2013-05-26 10:42:00,51.0,51.0,29.98,ESE,123,0.0,1.0,98,0.00,,,0.00,weatherlink.com 1.10,2013-05-26 17:42:00,
2013-05-26 10:57:00,51.2,51.0,29.98,ESE,123,0.0,1.0,98,0.00,,,0.00,weatherlink.com 1.10,2013-05-26 17:57:00,
2013-05-26 11:12:00,51.4,51.0,29.99,SE,127,0.0,1.0,98,0.00,,,0.00,weatherlink.com 1.10,2013-05-26 18:12:00,
2013-05-26 11:27:00,51.5,51.0,29.99,SE,127,0.0,1.0,98,0.00,,,0.00,weatherlink.com 1.10,2013-05-26 18:27:00,
2013-05-26 11:42:00,51.2,50.0,29.99,SE,127,0.0,1.0,97,0.00,,,0.00,weatherlink.com 1.10,2013-05-26 18:42:00,
2013-05-26 11:57:00,50.9,50.0,29.99,SE,127,0.0,1.0,97,0.00,,,0.00,weatherlink.com 1.10,2013-05-26 18:57:00,
2013-05-26 12:12:00,51.6,51.0,29.99,SE,127,0.0,1.0,98,0.00,,,0.00,weatherlink.com 1.10,2013-05-26 19:12:00,
2013-05-26 12:27:00,52.1,52.0,29.99,SE,127,0.0,1.0,98,0.00,,,0.00,weatherlink.com 1.10,2013-05-26 19:27:00,
2013-05-26 12:42:00,52.3,52.0,29.99,SE,127,1.0,2.0,98,0.00,,,0.00,weatherlink.com 1.10,2013-05-26 19:42:00,
2013-05-26 12:57:00,52.9,52.0,29.99,WSW,240,2.0,2.0,98,0.00,,,0.00,weatherlink.com 1.10,2013-05-26 19:57:00,
2013-05-26 13:12:00,52.6,52.0,29.99,WSW,241,0.0,3.0,97,0.00,,,0.00,weatherlink.com 1.10,2013-05-26 20:12:00,
2013-05-26 13:28:00,53.7,53.0,29.99,WSW,251,0.0,2.0,98,0.00,,,0.00,weatherlink.com 1.10,2013-05-26 20:28:00,
2013-05-26 13:43:00,54.3,54.0,29.99,WSW,252,0.0,2.0,98,0.00,,,0.00,weatherlink.com 1.10,2013-05-26 20:43:00,
2013-05-26 13:58:00,54.2,53.0,29.99,WSW,252,0.0,2.0,97,0.00,,,0.00,weatherlink.com 1.10,2013-05-26 20:58:00,
2013-05-26 14:13:00,53.7,52.0,29.99,WSW,252,0.0,1.0,95,0.00,,,0.00,weatherlink.com 1.10,2013-05-26 21:13:00,
2013-05-26 14:28:00,53.6,53.0,29.99,WSW,252,0.0,1.0,96,0.00,,,0.00,weatherlink.com 1.10,2013-05-26 21:28:00,
2013-05-26 14:43:00,53.5,52.0,29.99,WSW,252,0.0,3.0,96,0.00,,,0.00,weatherlink.com 1.10,2013-05-26 21:43:00,
2013-05-26 14:58:00,54.2,53.0,29.99,WSW,252,0.0,2.0,97,0.00,,,0.00,weatherlink.com 1.10,2013-05-26 21:58:00,
2013-05-26 15:13:00,55.2,54.0,29.99,WSW,253,0.0,3.0,97,0.00,,,0.00,weatherlink.com 1.10,2013-05-26 22:13:00,
2013-05-26 15:28:00,55.8,54.0,29.99,WSW,253,0.0,2.0,95,0.00,,,0.00,weatherlink.com 1.10,2013-05-26 22:28:00,
2013-05-26 15:43:00,55.7,54.0,29.99,WSW,253,0.0,2.0,94,0.00,,,0.00,weatherlink.com 1.10,2013-05-26 22:43:00,
2013-05-26 15:58:00,55.2,53.0,29.98,WSW,254,0.0,2.0,91,0.00,,,0.00,weatherlink.com 1.10,2013-05-26 22:58:00,
2013-05-26 16:13:00,55.0,53.0,29.98,WSW,254,1.0,2.0,94,0.00,,,0.00,weatherlink.com 1.10,2013-05-26 23:13:00,
2013-05-26 16:28:00,55.0,53.0,29.98,WSW,254,1.0,1.0,92,0.00,,,0.00,weatherlink.com 1.10,2013-05-26 23:28:00,
2013-05-26 16:43:00,55.1,53.0,29.98,WSW,254,1.0,2.0,93,0.00,,,0.00,weatherlink.com 1.10,2013-05-26 23:43:00,
2013-05-26 16:58:00,55.0,53.0,29.99,WSW,254,0.0,1.0,94,0.00,,,0.00,weatherlink.com 1.10,2013-05-26 23:58:00,
2013-05-26 17:13:00,54.9,53.0,29.99,WSW,254,0.0,1.0,94,0.00,,,0.00,weatherlink.com 1.10,2013-05-27 00:13:00,
2013-05-26 17:28:00,54.8,53.0,29.99,WSW,254,0.0,1.0,94,0.00,,,0.00,weatherlink.com 1.10,2013-05-27 00:28:00,
2013-05-26 17:43:00,55.1,54.0,29.98,WSW,254,0.0,1.0,94,0.00,,,0.00,weatherlink.com 1.10,2013-05-27 00:43:00,
2013-05-26 17:58:00,54.8,53.0,29.98,WSW,254,0.0,1.0,92,0.00,,,0.00,weatherlink.com 1.10,2013-05-27 00:58:00,
2013-05-26 18:13:00,54.6,52.0,29.98,WSW,254,0.0,1.0,92,0.00,,,0.00,weatherlink.com 1.10,2013-05-27 01:13:00,
2013-05-26 18:28:00,54.6,53.0,29.97,WSW,254,0.0,0.0,93,0.00,,,0.00,weatherlink.com 1.10,2013-05-27 01:28:00,
2013-05-26 18:43:00,54.8,53.0,29.97,WSW,254,0.0,1.0,94,0.00,,,0.00,weatherlink.com 1.10,2013-05-27 01:43:00,
2013-05-26 18:58:00,54.6,53.0,29.97,WSW,254,0.0,1.0,93,0.00,,,0.00,weatherlink.com 1.10,2013-05-27 01:58:00,
2013-05-26 19:13:00,54.5,53.0,29.97,WSW,254,0.0,1.0,93,0.00,,,0.00,weatherlink.com 1.10,2013-05-27 02:13:00,
2013-05-26 19:28:00,54.2,52.0,29.96,WSW,254,0.0,1.0,92,0.00,,,0.00,weatherlink.com 1.10,2013-05-27 02:28:00,
2013-05-26 19:43:00,53.9,52.0,29.96,WSW,254,0.0,2.0,93,0.00,,,0.00,weatherlink.com 1.10,2013-05-27 02:43:00,
2013-05-26 19:58:00,53.9,53.0,29.96,WSW,254,0.0,0.0,95,0.00,,,0.00,weatherlink.com 1.10,2013-05-27 02:58:00,
2013-05-26 20:13:00,53.9,53.0,29.96,WSW,254,0.0,0.0,95,0.00,,,0.00,weatherlink.com 1.10,2013-05-27 03:13:00,
2013-05-26 20:28:00,53.8,52.0,29.96,WSW,254,0.0,0.0,95,0.00,,,0.00,weatherlink.com 1.10,2013-05-27 03:28:00,
2013-05-26 20:43:00,53.5,52.0,29.96,WSW,254,0.0,0.0,95,0.00,,,0.00,weatherlink.com 1.10,2013-05-27 03:43:00,
2013-05-26 20:58:00,53.2,52.0,29.96,WSW,254,0.0,1.0,95,0.00,,,0.00,weatherlink.com 1.10,2013-05-27 03:58:00,
2013-05-26 21:13:00,52.7,51.0,29.96,WSW,254,0.0,1.0,94,0.00,,,0.00,weatherlink.com 1.10,2013-05-27 04:13:00,
2013-05-26 21:28:00,52.4,51.0,29.95,WSW,254,0.0,0.0,95,0.00,,,0.00,weatherlink.com 1.10,2013-05-27 04:28:00,
2013-05-26 21:43:00,52.2,51.0,29.95,WSW,254,0.0,0.0,96,0.00,,,0.00,weatherlink.com 1.10,2013-05-27 04:43:00,
2013-05-26 21:58:00,51.9,51.0,29.95,WSW,254,0.0,0.0,96,0.00,,,0.00,weatherlink.com 1.10,2013-05-27 04:58:00,
2013-05-26 22:13:00,52.2,51.0,29.95,WSW,254,0.0,0.0,97,0.00,,,0.00,weatherlink.com 1.10,2013-05-27 05:13:00,
2013-05-26 22:28:00,52.4,52.0,29.95,WSW,254,0.0,0.0,97,0.00,,,0.00,weatherlink.com 1.10,2013-05-27 05:28:00,
2013-05-26 22:43:00,52.7,52.0,29.94,WSW,254,0.0,0.0,98,0.00,,,0.00,weatherlink.com 1.10,2013-05-27 05:43:00,
2013-05-26 22:58:00,53.0,53.0,29.94,WSW,254,0.0,0.0,98,0.00,,,0.00,weatherlink.com 1.10,2013-05-27 05:58:00,
2013-05-26 23:13:00,53.1,53.0,29.94,WSW,254,0.0,0.0,98,0.00,,,0.00,weatherlink.com 1.10,2013-05-27 06:13:00,
2013-05-26 23:28:00,52.9,52.0,29.93,WSW,254,0.0,0.0,98,0.00,,,0.00,weatherlink.com 1.10,2013-05-27 06:28:00,
2013-05-26 23:43:00,52.6,52.0,29.93,WSW,254,0.0,0.0,97,0.00,,,0.00,weatherlink.com 1.10,2013-05-27 06:43:00,
2013-05-26 23:58:00,52.4,52.0,29.93,WSW,254,0.0,0.0,97,0.00,,,0.00,weatherlink.com 1.10,2013-05-27 06:58:00,